This is the latest recevied weather packets stored in our database for station/object KH6HHG. If no packets are shown the sender has not sent any weather packets the latest 10 day(s).
| Time | Temp. | Humidity | Pressure | Rain* | Wind** | Luminosity | Snow |
|---|---|---|---|---|---|---|---|
| 1777327747 | 26.11° C | 65% | 1012.3 hPa | 0 mm | - | - | - |
| 1777327447 | 26.11° C | 67% | 1012.4 hPa | 0 mm | - | - | - |
| 1777327147 | 26.67° C | 70% | 1012.4 hPa | 0 mm | - | - | - |
| 1777326847 | 26.11° C | 69% | 1012.5 hPa | 0 mm | - | - | - |
| 1777326547 | 25.56° C | 74% | 1012.6 hPa | 0 mm | - | - | - |
| 1777326247 | 26.11° C | 71% | 1012.6 hPa | 0 mm | - | - | - |
| 1777325947 | 26.11° C | 71% | 1012.5 hPa | 0 mm | - | - | - |
| 1777325647 | 26.11° C | 71% | 1012.6 hPa | 0 mm | - | - | - |
| 1777325347 | 26.11° C | 72% | 1012.6 hPa | 0 mm | - | - | - |
| 1777325046 | 25.56° C | 72% | 1012.7 hPa | 0 mm | - | - | - |
| 1777324746 | 26.11° C | 72% | 1012.8 hPa | 0 mm | - | - | - |
| 1777324446 | 26.11° C | 69% | 1012.8 hPa | 0 mm | - | - | - |
| 1777324146 | 25.56° C | 69% | 1012.9 hPa | 0 mm | - | - | - |
| 1777323846 | 26.11° C | 70% | 1012.9 hPa | 0 mm | - | - | - |
| 1777323546 | 26.11° C | 69% | 1012.8 hPa | 0 mm | - | - | - |
| 1777323246 | 25° C | 72% | 1012.9 hPa | 0 mm | - | - | - |
| 1777322946 | 24.44° C | 73% | 1012.9 hPa | 0 mm | - | - | - |
| 1777322646 | 23.89° C | 73% | 1013 hPa | 0 mm | - | - | - |
| 1777322346 | 24.44° C | 71% | 1013.1 hPa | 0 mm | - | - | - |
| 1777322046 | 24.44° C | 72% | 1013.2 hPa | 0 mm | - | - | - |
| 1777321746 | 24.44° C | 70% | 1013.2 hPa | 0 mm | - | - | - |
| 1777321446 | 24.44° C | 70% | 1013.2 hPa | 0 mm | - | - | - |
| 1777321146 | 24.44° C | 69% | 1013.2 hPa | 0 mm | - | - | - |
| 1777320846 | 23.89° C | 70% | 1013.2 hPa | 0 mm | - | - | - |
| 1777320546 | 23.89° C | 70% | 1013.2 hPa | 0 mm | - | - | - |
* Rain latest hour (hover to see other rain measurements)
** Current wind speed in m/s (hover to see current wind gust speed)